Location: Milton Keynes
(52.0316°N, 0.7531°W)
Time: 06:41:53
(UTC+01:00)

Genesis I - Pass Details

Date: 26 January 2019
Orbit: 488 x 536 km, 64.5° (Epoch: 23 October)

Event Time Altitude Azimuth Distance (km) Brightness Sun altitude
Exits shadow 05:48:56 42° 314° (NW) 767 3.6 -18.7°
Maximum altitude 05:49:07 42° 322° (NW) 763 3.7 -18.7°
Drops below altitude 10° 05:52:59 10° 35° (NE) 1,799 6.3 -18.1°
Sets 05:55:17 0° 42° (NE) 2,698 7.3 -17.8°
